{"data":{"norad_id":64587,"epoch":"2026-09-21T22:00:21.867264Z","epoch_age_seconds":55782,"freshness":"FRESH","line1":"1 64587U 25135BM  26264.91691976  .00001036  00000+0  10783-3 0  9995","line2":"2 64587  97.7818  18.1345 0002132  73.9234 286.2220 14.91962357 68328","mean_motion":14.91962357,"eccentricity":0.0002132,"inclination_deg":97.7818,"raan_deg":18.1345,"arg_perigee_deg":73.9234,"mean_anomaly_deg":286.222,"bstar":0.00010783,"rev_number":6832,"period_min":96.517180426423,"perigee_km":590.33130943913,"apogee_km":593.30329795423,"semimajor_km":6969.9543036967,"source":"CELESTRAK","updated_at":"2026-09-22T09:00:29.856068Z"}}